FREGAT DEB

基本信息
目录编号:
52960
目录名称:
FREGAT DEB
国际标识:
2011-037PP
轨道中心:
EARTH
物体状态:
已陨落(2024-06-01)
发射日期:
2011-07-18 UTC
轨道信息
数据来源: 国际轨道数据
星历时间: 2023-10-12T11:09:46+0800
半长轴: 7510.952km
偏心率: 0.1111092
轨道倾角: 51.391°
近地点辐角: 204.009°
升交点赤经: 82.365°
平近点角: 150.496°
近地点: 298.281km
远地点: 1967.353km
周期: 107.970分钟
每日圈数: 13.337067
详细信息
发射场:
TTMTR
轨道高度:
LEO
数据来源:
AOE Integration Group
参考系:
TEME
时间系统:
UTC
历元类型:
SGP4
2D轨道图
3D轨道图
轨道高度分析图
轨道倾角分析图
轨道综合分析图
查看轨道综合分析图